Time,TemperatureF,DewpointF,PressureIn,WindDirection,WindDirectionDegrees,WindSpeedMPH,WindSpeedGustMPH,Humidity,HourlyPrecipIn,Conditions,Clouds,dailyrainin,SoftwareType,DateUTC
2013-02-15 00:00:00,58.0,56.1,30.03,WNW,285,0.0,0.0,93,0.02,,,0.36,VWS V14.01,2013-02-15 05:00:00,
2013-02-15 00:05:00,58.1,56.2,30.04,WNW,285,0.0,0.0,93,0.02,,,0.00,VWS V14.01,2013-02-15 05:05:00,
2013-02-15 00:10:00,57.9,56.0,30.03,WNW,285,0.0,0.0,93,0.02,,,0.00,VWS V14.01,2013-02-15 05:10:00,
2013-02-15 00:15:00,57.8,55.8,30.02,WNW,285,0.0,0.0,93,0.02,,,0.00,VWS V14.01,2013-02-15 05:15:00,
2013-02-15 00:20:00,57.6,55.7,30.02,NW,322,0.0,0.0,93,0.02,,,0.00,VWS V14.01,2013-02-15 05:20:00,
2013-02-15 00:25:00,57.4,55.5,30.02,NW,322,0.0,2.5,93,0.02,,,0.00,VWS V14.01,2013-02-15 05:25:00,
2013-02-15 00:30:00,57.4,55.5,30.03,NW,322,0.0,0.0,93,0.02,,,0.00,VWS V14.01,2013-02-15 05:30:00,
2013-02-15 00:35:00,57.4,55.5,30.02,NW,322,0.0,0.0,93,0.02,,,0.00,VWS V14.01,2013-02-15 05:35:00,
2013-02-15 00:40:00,57.3,55.4,30.02,NW,322,0.0,0.0,93,0.02,,,0.00,VWS V14.01,2013-02-15 05:40:00,
2013-02-15 00:45:00,57.3,55.4,30.02,NW,322,0.0,0.0,93,0.01,,,0.00,VWS V14.01,2013-02-15 05:45:00,
2013-02-15 00:50:00,57.1,55.2,30.02,NW,322,0.0,0.0,93,0.01,,,0.00,VWS V14.01,2013-02-15 05:50:00,
2013-02-15 00:55:00,57.1,55.2,30.03,NW,322,0.0,0.0,93,0.00,,,0.00,VWS V14.01,2013-02-15 05:55:00,
2013-02-15 01:00:00,57.0,55.1,30.02,NW,322,0.0,0.0,93,0.00,,,0.00,VWS V14.01,2013-02-15 06:00:00,
2013-02-15 01:05:00,56.8,54.8,30.02,NW,322,0.0,0.0,93,0.01,,,0.01,VWS V14.01,2013-02-15 06:05:00,
2013-02-15 01:10:00,56.8,54.9,30.02,NW,322,0.0,0.0,93,0.01,,,0.01,VWS V14.01,2013-02-15 06:10:00,
2013-02-15 01:15:00,56.8,54.9,30.02,NW,322,0.0,0.0,93,0.01,,,0.01,VWS V14.01,2013-02-15 06:15:00,
2013-02-15 01:20:00,56.8,54.9,30.03,NW,322,0.0,0.0,93,0.01,,,0.01,VWS V14.01,2013-02-15 06:20:00,
2013-02-15 01:25:00,56.7,54.7,30.03,NW,322,0.0,0.0,93,0.01,,,0.01,VWS V14.01,2013-02-15 06:25:00,
2013-02-15 01:30:00,56.6,54.7,30.03,NW,322,0.0,0.0,93,0.01,,,0.01,VWS V14.01,2013-02-15 06:30:00,
2013-02-15 01:35:00,56.6,54.5,30.02,NW,322,0.0,0.0,93,0.01,,,0.01,VWS V14.01,2013-02-15 06:35:00,
2013-02-15 01:40:00,56.5,54.4,30.02,NW,322,0.0,0.0,93,0.01,,,0.01,VWS V14.01,2013-02-15 06:40:00,
2013-02-15 01:45:00,56.4,54.3,30.03,NW,322,0.0,0.0,93,0.01,,,0.01,VWS V14.01,2013-02-15 06:45:00,
2013-02-15 01:50:00,56.4,54.3,30.03,NW,322,0.0,0.0,93,0.01,,,0.01,VWS V14.01,2013-02-15 06:50:00,
2013-02-15 01:55:00,56.4,54.3,30.02,NW,322,0.0,0.0,93,0.01,,,0.01,VWS V14.01,2013-02-15 06:55:00,
2013-02-15 02:00:00,56.4,54.3,30.03,NW,322,0.0,0.0,93,0.01,,,0.01,VWS V14.01,2013-02-15 07:00:00,
2013-02-15 02:05:00,56.5,54.5,30.05,NW,322,0.0,0.0,93,0.01,,,0.01,VWS V14.01,2013-02-15 07:05:00,
2013-02-15 02:10:00,56.6,54.5,30.05,NW,322,0.0,0.0,93,0.00,,,0.01,VWS V14.01,2013-02-15 07:10:00,
2013-02-15 02:15:00,56.6,54.5,30.05,NW,322,0.0,0.0,93,0.00,,,0.01,VWS V14.01,2013-02-15 07:15:00,
2013-02-15 02:20:00,56.6,54.5,30.05,NW,322,0.0,0.0,93,0.00,,,0.01,VWS V14.01,2013-02-15 07:20:00,
2013-02-15 02:25:00,56.6,54.5,30.04,NW,322,0.0,0.0,92,0.00,,,0.01,VWS V14.01,2013-02-15 07:25:00,
2013-02-15 02:30:00,56.5,54.4,30.05,NW,322,0.0,0.0,92,0.00,,,0.01,VWS V14.01,2013-02-15 07:30:00,
2013-02-15 02:35:00,56.4,54.3,30.05,NW,322,0.0,0.0,92,0.00,,,0.01,VWS V14.01,2013-02-15 07:35:00,
2013-02-15 02:40:00,56.4,54.3,30.05,NW,322,0.0,0.0,92,0.00,,,0.01,VWS V14.01,2013-02-15 07:40:00,
2013-02-15 02:45:00,56.1,53.9,30.05,NW,322,0.0,0.0,92,0.00,,,0.01,VWS V14.01,2013-02-15 07:45:00,
2013-02-15 02:50:00,56.1,54.0,30.05,NW,322,0.0,0.0,92,0.00,,,0.01,VWS V14.01,2013-02-15 07:50:00,
2013-02-15 02:55:00,56.2,54.1,30.03,NW,322,0.0,0.0,93,0.00,,,0.01,VWS V14.01,2013-02-15 07:55:00,
2013-02-15 03:00:00,56.0,53.9,30.02,NW,322,0.0,0.0,93,0.00,,,0.01,VWS V14.01,2013-02-15 08:00:00,
2013-02-15 03:05:00,56.1,54.0,30.03,NW,322,0.0,0.0,93,0.00,,,0.01,VWS V14.01,2013-02-15 08:05:00,
2013-02-15 03:09:00,56.0,53.9,30.03,NW,322,0.0,0.0,93,0.00,,,0.01,VWS V14.01,2013-02-15 08:09:00,
2013-02-15 03:14:00,56.0,53.9,30.03,NW,322,0.0,0.0,93,0.00,,,0.01,VWS V14.01,2013-02-15 08:14:00,
2013-02-15 03:19:00,56.0,53.9,30.02,NW,322,0.0,0.0,93,0.00,,,0.01,VWS V14.01,2013-02-15 08:19:00,
2013-02-15 03:24:00,55.9,53.8,30.02,NW,322,0.0,0.0,93,0.00,,,0.01,VWS V14.01,2013-02-15 08:24:00,
2013-02-15 03:29:00,56.0,53.9,30.03,NW,322,0.0,0.0,93,0.00,,,0.01,VWS V14.01,2013-02-15 08:29:00,
2013-02-15 03:34:00,55.9,53.8,30.02,NW,322,0.0,0.0,93,0.00,,,0.01,VWS V14.01,2013-02-15 08:34:00,
2013-02-15 03:39:00,55.8,53.8,30.03,North,359,0.0,3.2,93,0.00,,,0.01,VWS V14.01,2013-02-15 08:39:00,
2013-02-15 03:44:00,55.7,53.6,30.02,North,359,0.0,4.3,93,0.00,,,0.01,VWS V14.01,2013-02-15 08:44:00,
2013-02-15 03:49:00,55.6,53.4,30.02,North,359,0.0,0.0,92,0.00,,,0.01,VWS V14.01,2013-02-15 08:49:00,
2013-02-15 03:54:00,55.3,53.1,30.02,North,359,0.0,0.0,92,0.00,,,0.01,VWS V14.01,2013-02-15 08:54:00,
2013-02-15 03:59:00,55.3,53.1,30.02,North,359,0.0,0.0,92,0.00,,,0.01,VWS V14.01,2013-02-15 08:59:00,
2013-02-15 04:04:00,55.2,53.1,30.02,North,359,0.0,0.0,92,0.00,,,0.01,VWS V14.01,2013-02-15 09:04:00,
2013-02-15 04:09:00,55.2,53.1,30.02,North,359,0.0,0.0,92,0.00,,,0.01,VWS V14.01,2013-02-15 09:09:00,
2013-02-15 04:14:00,55.2,53.1,30.02,North,359,0.0,0.0,92,0.00,,,0.01,VWS V14.01,2013-02-15 09:14:00,
2013-02-15 04:19:00,55.2,53.1,30.02,North,359,0.0,0.0,93,0.00,,,0.01,VWS V14.01,2013-02-15 09:19:00,
2013-02-15 04:24:00,55.2,53.1,30.03,North,359,0.0,0.0,93,0.00,,,0.01,VWS V14.01,2013-02-15 09:24:00,
2013-02-15 04:29:00,55.2,53.2,30.03,North,359,0.0,0.0,93,0.00,,,0.01,VWS V14.01,2013-02-15 09:29:00,
2013-02-15 04:34:00,55.2,53.2,30.03,North,359,0.0,0.0,93,0.00,,,0.01,VWS V14.01,2013-02-15 09:34:00,
2013-02-15 04:39:00,55.4,53.4,30.04,North,359,0.0,0.0,93,0.00,,,0.01,VWS V14.01,2013-02-15 09:39:00,
2013-02-15 04:44:00,55.3,53.3,30.04,North,359,0.0,0.0,93,0.00,,,0.01,VWS V14.01,2013-02-15 09:44:00,
2013-02-15 04:49:00,55.2,53.2,30.04,North,359,0.0,0.0,93,0.00,,,0.01,VWS V14.01,2013-02-15 09:49:00,
2013-02-15 04:54:00,55.1,53.0,30.05,North,359,0.0,0.0,93,0.00,,,0.01,VWS V14.01,2013-02-15 09:54:00,
2013-02-15 04:59:00,54.9,52.7,30.05,North,359,0.0,0.0,92,0.00,,,0.01,VWS V14.01,2013-02-15 09:59:00,
2013-02-15 05:04:00,54.9,52.7,30.05,North,359,0.0,0.0,92,0.00,,,0.01,VWS V14.01,2013-02-15 10:04:00,
2013-02-15 05:09:00,54.9,52.8,30.05,North,359,0.0,0.0,92,0.00,,,0.01,VWS V14.01,2013-02-15 10:09:00,
2013-02-15 05:14:00,54.8,52.6,30.04,North,359,0.0,0.0,92,0.00,,,0.01,VWS V14.01,2013-02-15 10:14:00,
2013-02-15 05:19:00,54.8,52.6,30.03,North,359,0.0,0.0,92,0.00,,,0.01,VWS V14.01,2013-02-15 10:19:00,
2013-02-15 05:24:00,54.7,52.5,30.03,North,359,0.0,0.0,92,0.00,,,0.01,VWS V14.01,2013-02-15 10:24:00,
2013-02-15 05:29:00,54.8,52.6,30.04,North,359,0.0,0.0,92,0.00,,,0.01,VWS V14.01,2013-02-15 10:29:00,
2013-02-15 05:34:00,54.8,52.7,30.04,North,359,0.0,0.0,92,0.00,,,0.01,VWS V14.01,2013-02-15 10:34:00,
2013-02-15 05:39:00,54.8,52.7,30.04,North,359,0.0,0.0,92,0.00,,,0.01,VWS V14.01,2013-02-15 10:39:00,
2013-02-15 05:44:00,54.9,52.8,30.05,North,359,0.0,0.0,92,0.00,,,0.01,VWS V14.01,2013-02-15 10:44:00,
2013-02-15 05:49:00,54.9,52.8,30.05,North,359,0.0,0.0,92,0.00,,,0.01,VWS V14.01,2013-02-15 10:49:00,
2013-02-15 05:54:00,54.9,52.8,30.05,North,359,0.0,0.0,93,0.00,,,0.01,VWS V14.01,2013-02-15 10:54:00,
2013-02-15 05:59:00,54.8,52.7,30.05,North,359,0.0,0.0,92,0.00,,,0.01,VWS V14.01,2013-02-15 10:59:00,
2013-02-15 06:04:00,54.8,52.7,30.05,North,359,0.0,0.0,92,0.00,,,0.01,VWS V14.01,2013-02-15 11:04:00,
2013-02-15 06:09:00,54.9,52.8,30.05,North,359,0.0,0.0,93,0.00,,,0.01,VWS V14.01,2013-02-15 11:09:00,
2013-02-15 06:14:00,54.9,52.8,30.05,North,359,0.0,0.0,93,0.00,,,0.01,VWS V14.01,2013-02-15 11:14:00,
2013-02-15 06:19:00,54.9,52.8,30.05,North,359,0.0,0.0,93,0.00,,,0.01,VWS V14.01,2013-02-15 11:19:00,
2013-02-15 06:24:00,55.0,52.9,30.05,North,359,0.0,0.0,93,0.00,,,0.01,VWS V14.01,2013-02-15 11:24:00,
2013-02-15 06:29:00,54.9,52.8,30.05,North,359,0.0,0.0,93,0.00,,,0.01,VWS V14.01,2013-02-15 11:29:00,
2013-02-15 06:34:00,54.8,52.8,30.05,North,359,0.0,0.0,93,0.00,,,0.01,VWS V14.01,2013-02-15 11:34:00,
2013-02-15 06:39:00,54.8,52.8,30.05,North,359,0.0,0.0,93,0.00,,,0.01,VWS V14.01,2013-02-15 11:39:00,
2013-02-15 06:44:00,54.8,52.8,30.05,North,359,0.0,0.0,93,0.00,,,0.01,VWS V14.01,2013-02-15 11:44:00,
2013-02-15 06:49:00,54.7,52.6,30.05,North,359,0.0,0.0,92,0.00,,,0.01,VWS V14.01,2013-02-15 11:49:00,
2013-02-15 06:54:00,54.5,52.4,30.05,North,359,0.0,5.4,92,0.00,,,0.01,VWS V14.01,2013-02-15 11:54:00,
2013-02-15 06:59:00,54.4,52.3,30.06,North,359,0.0,0.0,92,0.00,,,0.01,VWS V14.01,2013-02-15 11:59:00,
2013-02-15 07:04:00,54.4,52.3,30.06,North,359,0.0,0.0,92,0.00,,,0.01,VWS V14.01,2013-02-15 12:04:00,
2013-02-15 07:09:00,54.4,52.3,30.06,North,359,0.0,0.0,92,0.00,,,0.01,VWS V14.01,2013-02-15 12:09:00,
2013-02-15 07:14:00,54.4,52.3,30.06,North,359,0.0,0.0,92,0.00,,,0.01,VWS V14.01,2013-02-15 12:14:00,
2013-02-15 07:19:00,54.5,52.4,30.06,North,359,0.0,0.0,93,0.00,,,0.01,VWS V14.01,2013-02-15 12:19:00,
2013-02-15 07:24:00,54.5,52.4,30.06,North,359,0.0,0.0,92,0.00,,,0.01,VWS V14.01,2013-02-15 12:24:00,
2013-02-15 07:29:00,54.5,52.4,30.07,North,359,0.0,0.0,93,0.00,,,0.01,VWS V14.01,2013-02-15 12:29:00,
2013-02-15 07:34:00,54.6,52.5,30.07,North,359,0.0,0.0,93,0.00,,,0.01,VWS V14.01,2013-02-15 12:34:00,
2013-02-15 07:39:00,54.5,52.3,30.07,North,359,0.0,0.0,92,0.00,,,0.01,VWS V14.01,2013-02-15 12:39:00,
2013-02-15 07:44:00,54.4,52.2,30.07,North,359,0.0,0.0,92,0.00,,,0.01,VWS V14.01,2013-02-15 12:44:00,
2013-02-15 07:49:00,54.4,52.3,30.08,North,359,0.0,0.0,92,0.00,,,0.01,VWS V14.01,2013-02-15 12:49:00,
2013-02-15 07:54:00,54.3,52.2,30.08,North,359,0.0,0.0,92,0.00,,,0.01,VWS V14.01,2013-02-15 12:54:00,
2013-02-15 07:59:00,54.3,52.2,30.08,North,359,0.0,0.0,92,0.00,,,0.01,VWS V14.01,2013-02-15 12:59:00,
2013-02-15 08:04:00,54.2,52.1,30.08,North,359,0.0,0.0,92,0.00,,,0.01,VWS V14.01,2013-02-15 13:04:00,
2013-02-15 08:08:00,54.1,52.0,30.08,North,359,0.0,0.0,92,0.00,,,0.01,VWS V14.01,2013-02-15 13:08:00,
2013-02-15 08:13:00,54.1,52.0,30.09,North,359,0.0,0.0,92,0.00,,,0.01,VWS V14.01,2013-02-15 13:13:00,
2013-02-15 08:18:00,54.2,52.1,30.09,North,359,0.0,0.0,92,0.00,,,0.01,VWS V14.01,2013-02-15 13:18:00,
2013-02-15 08:23:00,54.3,52.1,30.09,North,359,0.0,0.0,92,0.00,,,0.01,VWS V14.01,2013-02-15 13:23:00,
2013-02-15 08:28:00,54.3,52.2,30.09,North,359,0.0,0.0,92,0.00,,,0.01,VWS V14.01,2013-02-15 13:28:00,
2013-02-15 08:33:00,54.5,52.4,30.08,North,359,0.0,0.0,93,0.00,,,0.01,VWS V14.01,2013-02-15 13:33:00,
2013-02-15 08:38:00,54.6,52.5,30.08,North,359,0.0,0.0,93,0.00,,,0.01,VWS V14.01,2013-02-15 13:38:00,
2013-02-15 08:43:00,54.8,52.8,30.08,North,359,0.0,0.0,93,0.00,,,0.01,VWS V14.01,2013-02-15 13:43:00,
2013-02-15 08:48:00,54.8,52.8,30.09,North,359,0.0,0.0,93,0.00,,,0.01,VWS V14.01,2013-02-15 13:48:00,
2013-02-15 08:53:00,54.7,52.6,30.08,NW,321,0.0,0.0,93,0.00,,,0.01,VWS V14.01,2013-02-15 13:53:00,
2013-02-15 08:58:00,54.6,52.5,30.09,NW,321,0.0,0.0,93,0.00,,,0.01,VWS V14.01,2013-02-15 13:58:00,
2013-02-15 09:03:00,54.7,52.5,30.09,NW,321,0.0,0.0,92,0.00,,,0.01,VWS V14.01,2013-02-15 14:03:00,
2013-02-15 09:08:00,54.8,52.6,30.09,NW,321,0.0,0.0,92,0.00,,,0.01,VWS V14.01,2013-02-15 14:08:00,
2013-02-15 09:13:00,54.8,52.6,30.10,NW,321,0.0,0.0,92,0.00,,,0.01,VWS V14.01,2013-02-15 14:13:00,
2013-02-15 09:18:00,54.8,52.6,30.10,NW,321,0.0,0.0,92,0.00,,,0.01,VWS V14.01,2013-02-15 14:18:00,
2013-02-15 09:23:00,54.9,52.7,30.11,NW,321,0.0,0.0,92,0.00,,,0.01,VWS V14.01,2013-02-15 14:23:00,
2013-02-15 09:28:00,54.9,52.7,30.11,NNW,343,0.0,0.0,92,0.00,,,0.01,VWS V14.01,2013-02-15 14:28:00,
2013-02-15 09:33:00,55.0,52.8,30.10,NNW,343,0.0,0.0,92,0.00,,,0.01,VWS V14.01,2013-02-15 14:33:00,
2013-02-15 09:38:00,55.0,52.7,30.10,NNW,343,0.0,0.0,92,0.00,,,0.01,VWS V14.01,2013-02-15 14:38:00,
2013-02-15 09:43:00,55.0,52.7,30.10,NNW,343,0.0,0.0,92,0.00,,,0.01,VWS V14.01,2013-02-15 14:43:00,
2013-02-15 09:48:00,55.1,52.8,30.10,NNW,343,0.0,0.0,92,0.00,,,0.01,VWS V14.01,2013-02-15 14:48:00,
2013-02-15 09:53:00,55.2,53.0,30.10,NNW,343,0.0,0.0,92,0.00,,,0.01,VWS V14.01,2013-02-15 14:53:00,
2013-02-15 09:58:00,55.3,52.9,30.10,NNW,343,0.0,0.0,92,0.00,,,0.01,VWS V14.01,2013-02-15 14:58:00,
2013-02-15 10:03:00,55.4,53.1,30.10,NNW,343,0.0,0.0,92,0.00,,,0.01,VWS V14.01,2013-02-15 15:03:00,
2013-02-15 10:08:00,55.4,52.8,30.10,NNW,343,0.0,0.0,91,0.00,,,0.01,VWS V14.01,2013-02-15 15:08:00,
2013-02-15 10:13:00,55.5,53.1,30.10,NNW,343,0.0,0.0,92,0.00,,,0.01,VWS V14.01,2013-02-15 15:13:00,
2013-02-15 10:18:00,55.5,53.1,30.10,NNW,343,0.0,0.0,92,0.00,,,0.01,VWS V14.01,2013-02-15 15:18:00,
2013-02-15 10:23:00,55.9,53.5,30.11,WNW,288,0.0,0.0,92,0.00,,,0.01,VWS V14.01,2013-02-15 15:23:00,
2013-02-15 10:28:00,56.3,53.8,30.12,WNW,288,0.0,0.0,91,0.00,,,0.01,VWS V14.01,2013-02-15 15:28:00,
2013-02-15 10:33:00,56.3,53.7,30.11,WNW,288,0.0,0.0,91,0.00,,,0.01,VWS V14.01,2013-02-15 15:33:00,
2013-02-15 10:38:00,56.5,54.0,30.10,WNW,288,0.0,0.0,91,0.00,,,0.01,VWS V14.01,2013-02-15 15:38:00,
2013-02-15 10:43:00,56.6,53.9,30.10,WNW,288,0.0,0.0,91,0.00,,,0.01,VWS V14.01,2013-02-15 15:43:00,
2013-02-15 10:48:00,56.7,54.0,30.09,WNW,288,0.0,0.0,91,0.00,,,0.01,VWS V14.01,2013-02-15 15:48:00,
2013-02-15 10:53:00,56.8,54.0,30.09,WNW,288,0.0,0.0,90,0.00,,,0.01,VWS V14.01,2013-02-15 15:53:00,
2013-02-15 10:58:00,56.8,54.1,30.09,WNW,288,0.0,0.0,90,0.00,,,0.01,VWS V14.01,2013-02-15 15:58:00,
2013-02-15 11:03:00,56.9,54.1,30.10,WNW,288,0.0,0.0,90,0.00,,,0.01,VWS V14.01,2013-02-15 16:03:00,
2013-02-15 11:08:00,57.1,54.3,30.09,WNW,288,0.0,0.0,90,0.00,,,0.01,VWS V14.01,2013-02-15 16:08:00,
2013-02-15 11:13:00,57.7,54.7,30.09,WNW,288,0.0,0.0,90,0.00,,,0.01,VWS V14.01,2013-02-15 16:13:00,
2013-02-15 11:18:00,58.1,55.0,30.09,West,276,0.0,2.9,90,0.00,,,0.01,VWS V14.01,2013-02-15 16:18:00,
2013-02-15 11:23:00,58.5,54.7,30.09,West,276,0.0,0.0,87,0.00,,,0.01,VWS V14.01,2013-02-15 16:23:00,
2013-02-15 11:28:00,58.7,54.8,30.10,West,276,0.0,0.0,87,0.00,,,0.01,VWS V14.01,2013-02-15 16:28:00,
2013-02-15 11:33:00,59.0,54.8,30.09,West,276,0.0,0.0,86,0.00,,,0.01,VWS V14.01,2013-02-15 16:33:00,
2013-02-15 11:38:00,59.3,55.5,30.09,NNW,329,0.0,0.0,87,0.00,,,0.01,VWS V14.01,2013-02-15 16:38:00,
2013-02-15 11:43:00,59.6,55.4,30.09,NNW,329,0.0,0.0,86,0.00,,,0.01,VWS V14.01,2013-02-15 16:43:00,
2013-02-15 11:48:00,60.0,55.6,30.09,NNW,329,0.0,0.0,85,0.00,,,0.01,VWS V14.01,2013-02-15 16:48:00,
2013-02-15 11:53:00,60.5,55.7,30.09,NNW,329,0.0,0.0,84,0.00,,,0.01,VWS V14.01,2013-02-15 16:53:00,
2013-02-15 11:58:00,61.2,55.8,30.08,NNW,329,0.0,0.0,82,0.00,,,0.01,VWS V14.01,2013-02-15 16:58:00,
2013-02-15 12:03:00,61.0,55.4,30.08,NNW,329,0.0,0.0,82,0.00,,,0.01,VWS V14.01,2013-02-15 17:03:00,
2013-02-15 12:08:00,61.5,55.8,30.08,NNW,329,0.0,0.0,82,0.00,,,0.01,VWS V14.01,2013-02-15 17:08:00,
2013-02-15 12:13:00,61.5,55.3,30.08,NNW,329,0.0,0.0,80,0.00,,,0.01,VWS V14.01,2013-02-15 17:13:00,
2013-02-15 12:18:00,62.0,56.1,30.07,NNW,345,0.0,3.0,81,0.00,,,0.01,VWS V14.01,2013-02-15 17:18:00,
2013-02-15 12:23:00,62.5,56.5,30.08,NNW,345,0.0,0.0,81,0.00,,,0.01,VWS V14.01,2013-02-15 17:23:00,
2013-02-15 12:28:00,63.3,56.2,30.07,NNW,345,0.0,0.0,78,0.00,,,0.01,VWS V14.01,2013-02-15 17:28:00,
2013-02-15 12:33:00,62.6,56.1,30.06,West,281,2.6,3.4,79,0.00,,,0.01,VWS V14.01,2013-02-15 17:33:00,
2013-02-15 12:38:00,62.9,56.7,30.06,West,281,0.0,0.0,80,0.00,,,0.01,VWS V14.01,2013-02-15 17:38:00,
2013-02-15 12:43:00,62.7,56.3,30.05,West,281,0.0,0.0,80,0.00,,,0.01,VWS V14.01,2013-02-15 17:43:00,
2013-02-15 12:48:00,63.0,56.6,30.05,West,281,0.0,0.0,80,0.00,,,0.01,VWS V14.01,2013-02-15 17:48:00,
2013-02-15 12:53:00,63.2,56.8,30.05,NNW,333,0.0,0.0,80,0.00,,,0.01,VWS V14.01,2013-02-15 17:53:00,
2013-02-15 12:58:00,63.7,57.2,30.06,NNW,333,0.0,0.0,79,0.00,,,0.01,VWS V14.01,2013-02-15 17:58:00,
2013-02-15 13:03:00,63.8,56.8,30.05,NNW,333,0.0,0.0,78,0.00,,,0.01,VWS V14.01,2013-02-15 18:03:00,
2013-02-15 13:07:00,63.9,56.9,30.05,NNW,333,0.0,0.0,78,0.00,,,0.01,VWS V14.01,2013-02-15 18:07:00,
2013-02-15 13:12:00,64.2,56.7,30.05,NNW,333,0.0,0.0,77,0.00,,,0.01,VWS V14.01,2013-02-15 18:12:00,
2013-02-15 13:17:00,64.2,56.9,30.04,North,0,0.0,5.6,77,0.00,,,0.01,VWS V14.01,2013-02-15 18:17:00,
2013-02-15 13:22:00,64.3,57.2,30.03,North,0,0.0,0.0,78,0.00,,,0.01,VWS V14.01,2013-02-15 18:22:00,
2013-02-15 13:27:00,64.6,57.6,30.03,West,270,4.2,4.8,78,0.00,,,0.01,VWS V14.01,2013-02-15 18:27:00,
2013-02-15 13:32:00,64.8,57.0,30.03,North,4,0.0,0.0,76,0.00,,,0.01,VWS V14.01,2013-02-15 18:32:00,
2013-02-15 13:37:00,65.1,57.5,30.03,NNW,339,0.0,4.3,76,0.00,,,0.01,VWS V14.01,2013-02-15 18:37:00,
2013-02-15 13:42:00,65.0,56.8,30.02,NNW,339,0.0,0.0,75,0.00,,,0.01,VWS V14.01,2013-02-15 18:42:00,
2013-02-15 13:47:00,65.6,58.0,30.02,NNW,339,0.0,0.0,76,0.00,,,0.01,VWS V14.01,2013-02-15 18:47:00,
2013-02-15 13:52:00,66.4,58.8,30.01,NNW,339,0.0,0.0,77,0.00,,,0.01,VWS V14.01,2013-02-15 18:52:00,
2013-02-15 13:57:00,66.9,58.5,30.01,NNW,339,0.0,0.0,74,0.00,,,0.01,VWS V14.01,2013-02-15 18:57:00,
2013-02-15 14:02:00,67.1,58.7,30.01,NNW,339,0.0,0.0,74,0.00,,,0.01,VWS V14.01,2013-02-15 19:02:00,
2013-02-15 14:07:00,67.4,59.1,30.01,NNW,339,0.0,0.0,75,0.00,,,0.01,VWS V14.01,2013-02-15 19:07:00,
2013-02-15 14:12:00,67.3,59.0,30.01,NNW,339,0.0,0.0,75,0.00,,,0.01,VWS V14.01,2013-02-15 19:12:00,
2013-02-15 14:17:00,67.2,58.2,30.00,NNW,339,0.0,0.0,73,0.00,,,0.01,VWS V14.01,2013-02-15 19:17:00,
2013-02-15 14:22:00,67.3,58.9,30.00,NNW,339,0.0,0.0,74,0.00,,,0.01,VWS V14.01,2013-02-15 19:22:00,
2013-02-15 14:27:00,67.2,59.0,30.00,NNW,339,0.0,0.0,75,0.00,,,0.01,VWS V14.01,2013-02-15 19:27:00,
2013-02-15 14:32:00,67.3,59.0,30.00,NNW,339,0.0,0.0,75,0.00,,,0.01,VWS V14.01,2013-02-15 19:32:00,
2013-02-15 14:37:00,67.4,59.2,30.00,NNW,339,0.0,0.0,75,0.00,,,0.01,VWS V14.01,2013-02-15 19:37:00,
2013-02-15 14:42:00,67.8,59.6,30.00,NNW,339,0.0,0.0,75,0.00,,,0.01,VWS V14.01,2013-02-15 19:42:00,
2013-02-15 14:47:00,68.1,59.3,29.99,NNW,339,0.0,0.0,74,0.00,,,0.01,VWS V14.01,2013-02-15 19:47:00,
2013-02-15 14:52:00,68.3,58.9,29.99,NNW,339,0.0,0.0,72,0.00,,,0.01,VWS V14.01,2013-02-15 19:52:00,
2013-02-15 14:57:00,68.4,59.6,29.99,NNE,27,0.0,4.6,73,0.00,,,0.01,VWS V14.01,2013-02-15 19:57:00,
2013-02-15 15:02:00,68.2,58.9,29.99,NNE,27,0.0,0.0,72,0.00,,,0.01,VWS V14.01,2013-02-15 20:02:00,
2013-02-15 15:07:00,68.2,59.3,29.99,NNE,27,0.0,0.0,73,0.00,,,0.01,VWS V14.01,2013-02-15 20:07:00,
2013-02-15 15:12:00,68.5,59.2,29.99,NNE,27,0.0,0.0,72,0.00,,,0.01,VWS V14.01,2013-02-15 20:12:00,
2013-02-15 15:17:00,68.5,59.0,29.98,NNE,27,0.0,0.0,72,0.00,,,0.01,VWS V14.01,2013-02-15 20:17:00,
2013-02-15 15:22:00,68.4,59.1,29.98,NNE,27,0.0,0.0,72,0.00,,,0.01,VWS V14.01,2013-02-15 20:22:00,
2013-02-15 15:27:00,68.1,58.5,29.98,NNE,27,0.0,0.0,71,0.00,,,0.01,VWS V14.01,2013-02-15 20:27:00,
2013-02-15 15:32:00,68.3,59.2,29.98,NNE,27,0.0,0.0,73,0.00,,,0.01,VWS V14.01,2013-02-15 20:32:00,
2013-02-15 15:37:00,68.6,59.1,29.98,NNE,27,0.0,0.0,72,0.00,,,0.01,VWS V14.01,2013-02-15 20:37:00,
2013-02-15 15:42:00,68.9,59.0,29.98,NNE,27,0.0,0.0,71,0.00,,,0.01,VWS V14.01,2013-02-15 20:42:00,
2013-02-15 15:47:00,69.4,59.4,29.98,NNE,27,0.0,0.0,70,0.00,,,0.01,VWS V14.01,2013-02-15 20:47:00,
2013-02-15 15:52:00,69.7,59.3,29.98,NNE,27,0.0,0.0,70,0.00,,,0.01,VWS V14.01,2013-02-15 20:52:00,
2013-02-15 15:57:00,69.5,58.6,29.99,West,277,0.0,0.0,68,0.00,,,0.01,VWS V14.01,2013-02-15 20:57:00,
2013-02-15 16:02:00,69.1,58.5,29.99,West,278,0.0,4.5,69,0.00,,,0.01,VWS V14.01,2013-02-15 21:02:00,
2013-02-15 16:07:00,69.2,58.0,29.99,NW,319,0.0,3.3,68,0.00,,,0.01,VWS V14.01,2013-02-15 21:07:00,
2013-02-15 16:12:00,69.4,57.6,29.99,WNW,300,0.0,2.5,66,0.00,,,0.01,VWS V14.01,2013-02-15 21:12:00,
2013-02-15 16:17:00,69.5,57.1,29.99,SSW,194,0.0,7.8,65,0.00,,,0.01,VWS V14.01,2013-02-15 21:17:00,
2013-02-15 16:22:00,69.5,56.7,29.99,WNW,301,0.0,7.0,64,0.00,,,0.01,VWS V14.01,2013-02-15 21:22:00,
2013-02-15 16:27:00,69.3,56.6,29.99,WNW,302,4.8,4.8,64,0.00,,,0.01,VWS V14.01,2013-02-15 21:27:00,
2013-02-15 16:32:00,69.3,56.3,29.99,NNW,332,0.0,7.1,63,0.00,,,0.01,VWS V14.01,2013-02-15 21:32:00,
2013-02-15 16:37:00,69.2,56.3,29.99,West,271,0.0,0.0,64,0.00,,,0.01,VWS V14.01,2013-02-15 21:37:00,
2013-02-15 16:42:00,69.1,56.1,29.99,NW,321,0.0,4.2,63,0.00,,,0.01,VWS V14.01,2013-02-15 21:42:00,
2013-02-15 16:47:00,69.1,56.3,29.98,NW,321,0.0,0.0,64,0.00,,,0.01,VWS V14.01,2013-02-15 21:47:00,
2013-02-15 16:52:00,68.9,56.0,29.99,NW,321,0.0,0.0,63,0.00,,,0.01,VWS V14.01,2013-02-15 21:52:00,
2013-02-15 16:57:00,68.9,55.6,29.98,West,267,2.8,3.2,62,0.00,,,0.01,VWS V14.01,2013-02-15 21:57:00,
2013-02-15 17:02:00,68.8,56.2,29.99,NW,319,0.0,0.0,64,0.00,,,0.01,VWS V14.01,2013-02-15 22:02:00,
2013-02-15 17:07:00,68.9,55.9,29.99,NW,319,0.0,0.0,63,0.00,,,0.01,VWS V14.01,2013-02-15 22:07:00,
2013-02-15 17:12:00,68.7,56.3,29.99,NW,319,0.0,0.0,65,0.00,,,0.01,VWS V14.01,2013-02-15 22:12:00,
2013-02-15 17:17:00,68.7,56.1,29.98,NW,319,0.0,0.0,64,0.00,,,0.01,VWS V14.01,2013-02-15 22:17:00,
2013-02-15 17:22:00,68.5,56.7,29.98,NW,319,0.0,0.0,66,0.00,,,0.01,VWS V14.01,2013-02-15 22:22:00,
2013-02-15 17:27:00,68.4,56.9,29.98,NW,319,0.0,0.0,67,0.00,,,0.01,VWS V14.01,2013-02-15 22:27:00,
2013-02-15 17:32:00,68.4,57.2,29.98,NW,319,0.0,0.0,67,0.00,,,0.01,VWS V14.01,2013-02-15 22:32:00,
2013-02-15 17:37:00,68.3,57.4,29.98,WNW,291,0.0,0.0,68,0.00,,,0.01,VWS V14.01,2013-02-15 22:37:00,
2013-02-15 17:42:00,68.2,57.4,29.98,WNW,291,0.0,0.0,68,0.00,,,0.01,VWS V14.01,2013-02-15 22:42:00,
2013-02-15 17:47:00,68.0,57.5,29.98,WNW,291,0.0,0.0,69,0.00,,,0.01,VWS V14.01,2013-02-15 22:47:00,
2013-02-15 17:52:00,67.7,57.7,29.98,WNW,291,0.0,0.0,70,0.00,,,0.01,VWS V14.01,2013-02-15 22:52:00,
2013-02-15 17:57:00,67.3,57.4,29.98,WNW,291,0.0,0.0,71,0.00,,,0.01,VWS V14.01,2013-02-15 22:57:00,
2013-02-15 18:02:00,67.2,57.5,29.97,WNW,291,0.0,0.0,71,0.00,,,0.01,VWS V14.01,2013-02-15 23:02:00,
2013-02-15 18:07:00,67.1,57.7,29.98,WNW,291,0.0,0.0,72,0.00,,,0.01,VWS V14.01,2013-02-15 23:07:00,
2013-02-15 18:12:00,66.6,57.3,29.98,WNW,291,0.0,0.0,72,0.00,,,0.01,VWS V14.01,2013-02-15 23:12:00,
2013-02-15 18:17:00,66.3,57.1,29.98,WNW,291,0.0,0.0,72,0.00,,,0.01,VWS V14.01,2013-02-15 23:17:00,
2013-02-15 18:22:00,66.0,57.0,29.98,WNW,291,0.0,0.0,73,0.00,,,0.01,VWS V14.01,2013-02-15 23:22:00,
2013-02-15 18:27:00,65.5,56.8,29.98,WNW,291,0.0,0.0,73,0.00,,,0.01,VWS V14.01,2013-02-15 23:27:00,
2013-02-15 18:32:00,65.3,57.0,29.98,WNW,291,0.0,0.0,74,0.00,,,0.01,VWS V14.01,2013-02-15 23:32:00,
2013-02-15 18:37:00,64.7,56.5,29.98,WNW,291,0.0,0.0,75,0.00,,,0.01,VWS V14.01,2013-02-15 23:37:00,
2013-02-15 18:42:00,64.6,56.4,29.98,WNW,291,0.0,0.0,75,0.00,,,0.01,VWS V14.01,2013-02-15 23:42:00,
2013-02-15 18:47:00,63.9,56.2,29.99,WNW,291,0.0,0.0,76,0.00,,,0.01,VWS V14.01,2013-02-15 23:47:00,
2013-02-15 18:52:00,63.3,56.1,29.98,WNW,291,0.0,0.0,77,0.00,,,0.01,VWS V14.01,2013-02-15 23:52:00,
2013-02-15 18:57:00,62.7,56.2,29.98,WNW,291,0.0,0.0,79,0.00,,,0.01,VWS V14.01,2013-02-15 23:57:00,
2013-02-15 19:02:00,62.6,56.2,29.99,WNW,291,0.0,0.0,80,0.00,,,0.01,VWS V14.01,2013-02-16 00:02:00,
2013-02-15 19:07:00,62.3,56.2,29.99,WNW,291,0.0,0.0,80,0.00,,,0.01,VWS V14.01,2013-02-16 00:07:00,
2013-02-15 19:12:00,62.0,56.1,29.99,WNW,291,0.0,0.0,81,0.00,,,0.01,VWS V14.01,2013-02-16 00:12:00,
2013-02-15 19:17:00,61.7,55.8,29.99,WNW,291,0.0,0.0,81,0.00,,,0.01,VWS V14.01,2013-02-16 00:17:00,
2013-02-15 19:21:00,61.7,55.9,29.99,WNW,291,0.0,0.0,81,0.00,,,0.01,VWS V14.01,2013-02-16 00:21:00,
2013-02-15 19:26:00,61.3,55.5,29.99,WNW,291,0.0,0.0,81,0.00,,,0.01,VWS V14.01,2013-02-16 00:26:00,
2013-02-15 19:31:00,61.3,55.7,30.00,WNW,291,0.0,0.0,82,0.00,,,0.01,VWS V14.01,2013-02-16 00:31:00,
2013-02-15 19:36:00,61.2,55.7,30.00,WNW,291,0.0,0.0,82,0.00,,,0.01,VWS V14.01,2013-02-16 00:36:00,
2013-02-15 19:41:00,61.2,55.7,29.99,WNW,291,0.0,0.0,82,0.00,,,0.01,VWS V14.01,2013-02-16 00:41:00,
2013-02-15 19:46:00,60.9,55.6,29.99,WNW,291,0.0,0.0,83,0.00,,,0.01,VWS V14.01,2013-02-16 00:46:00,
2013-02-15 19:51:00,60.9,55.7,30.00,WNW,291,0.0,0.0,83,0.00,,,0.01,VWS V14.01,2013-02-16 00:51:00,
2013-02-15 19:56:00,60.4,55.2,30.00,WNW,291,0.0,0.0,83,0.00,,,0.01,VWS V14.01,2013-02-16 00:56:00,
2013-02-15 20:01:00,60.6,55.5,30.00,WNW,291,0.0,0.0,83,0.00,,,0.01,VWS V14.01,2013-02-16 01:01:00,
2013-02-15 20:06:00,60.4,55.5,30.00,WNW,291,0.0,0.0,84,0.00,,,0.01,VWS V14.01,2013-02-16 01:06:00,
2013-02-15 20:11:00,60.1,55.4,30.00,WNW,291,0.0,0.0,84,0.00,,,0.01,VWS V14.01,2013-02-16 01:11:00,
2013-02-15 20:16:00,60.0,55.3,30.00,WNW,291,0.0,0.0,84,0.00,,,0.01,VWS V14.01,2013-02-16 01:16:00,
2013-02-15 20:21:00,60.0,55.4,30.00,WNW,291,0.0,0.0,85,0.00,,,0.01,VWS V14.01,2013-02-16 01:21:00,
2013-02-15 20:26:00,59.5,55.1,30.00,WNW,291,0.0,0.0,85,0.00,,,0.01,VWS V14.01,2013-02-16 01:26:00,
2013-02-15 20:31:00,59.4,55.1,30.00,WNW,291,0.0,0.0,86,0.00,,,0.01,VWS V14.01,2013-02-16 01:31:00,
2013-02-15 20:36:00,59.3,55.0,30.00,WNW,291,0.0,0.0,86,0.00,,,0.01,VWS V14.01,2013-02-16 01:36:00,
2013-02-15 20:41:00,59.3,55.1,30.00,WNW,291,0.0,0.0,86,0.00,,,0.01,VWS V14.01,2013-02-16 01:41:00,
2013-02-15 20:46:00,59.3,55.2,30.00,WNW,291,0.0,0.0,86,0.00,,,0.01,VWS V14.01,2013-02-16 01:46:00,
2013-02-15 20:51:00,58.9,55.0,30.00,WNW,291,0.0,0.0,87,0.00,,,0.01,VWS V14.01,2013-02-16 01:51:00,
2013-02-15 20:56:00,58.9,55.0,30.00,WNW,291,0.0,0.0,87,0.00,,,0.01,VWS V14.01,2013-02-16 01:56:00,
2013-02-15 21:01:00,58.8,55.0,30.00,WNW,291,0.0,0.0,87,0.00,,,0.01,VWS V14.01,2013-02-16 02:01:00,
2013-02-15 21:06:00,58.7,55.0,30.00,WNW,291,0.0,0.0,87,0.00,,,0.01,VWS V14.01,2013-02-16 02:06:00,
2013-02-15 21:11:00,58.5,54.8,30.00,WNW,291,0.0,0.0,88,0.00,,,0.01,VWS V14.01,2013-02-16 02:11:00,
2013-02-15 21:16:00,58.3,54.7,30.00,WNW,291,0.0,0.0,88,0.00,,,0.01,VWS V14.01,2013-02-16 02:16:00,
2013-02-15 21:21:00,58.2,54.7,30.00,WNW,291,0.0,0.0,88,0.00,,,0.01,VWS V14.01,2013-02-16 02:21:00,
2013-02-15 21:26:00,58.1,54.6,30.00,WNW,291,0.0,0.0,88,0.00,,,0.01,VWS V14.01,2013-02-16 02:26:00,
2013-02-15 21:31:00,58.0,54.5,30.01,WNW,291,0.0,0.0,88,0.00,,,0.01,VWS V14.01,2013-02-16 02:31:00,
2013-02-15 21:36:00,57.9,54.4,30.00,WNW,291,0.0,0.0,88,0.00,,,0.01,VWS V14.01,2013-02-16 02:36:00,
2013-02-15 21:41:00,57.8,54.4,30.00,WNW,291,0.0,0.0,88,0.00,,,0.01,VWS V14.01,2013-02-16 02:41:00,
2013-02-15 21:46:00,57.6,54.3,30.00,WNW,291,0.0,0.0,89,0.00,,,0.01,VWS V14.01,2013-02-16 02:46:00,
2013-02-15 21:51:00,57.4,54.2,30.00,WNW,291,0.0,0.0,89,0.00,,,0.01,VWS V14.01,2013-02-16 02:51:00,
2013-02-15 21:56:00,57.3,54.2,30.00,WNW,291,0.0,0.0,89,0.00,,,0.01,VWS V14.01,2013-02-16 02:56:00,
2013-02-15 22:01:00,57.3,54.3,30.01,WNW,291,0.0,0.0,90,0.00,,,0.01,VWS V14.01,2013-02-16 03:01:00,
2013-02-15 22:06:00,57.3,54.3,30.00,WNW,291,0.0,0.0,90,0.00,,,0.01,VWS V14.01,2013-02-16 03:06:00,
2013-02-15 22:11:00,57.3,54.4,30.01,WNW,291,0.0,0.0,90,0.00,,,0.01,VWS V14.01,2013-02-16 03:11:00,
2013-02-15 22:16:00,57.2,54.3,30.00,WNW,291,0.0,0.0,90,0.00,,,0.01,VWS V14.01,2013-02-16 03:16:00,
2013-02-15 22:21:00,57.1,54.3,30.01,WNW,291,0.0,0.0,90,0.00,,,0.01,VWS V14.01,2013-02-16 03:21:00,
2013-02-15 22:26:00,57.1,54.3,30.01,WNW,291,0.0,0.0,90,0.00,,,0.01,VWS V14.01,2013-02-16 03:26:00,
2013-02-15 22:31:00,57.0,54.2,30.01,WNW,291,0.0,0.0,90,0.00,,,0.01,VWS V14.01,2013-02-16 03:31:00,
2013-02-15 22:36:00,57.0,54.2,30.01,WNW,291,0.0,0.0,90,0.00,,,0.01,VWS V14.01,2013-02-16 03:36:00,
2013-02-15 22:41:00,56.8,54.1,30.00,WNW,291,0.0,0.0,90,0.00,,,0.01,VWS V14.01,2013-02-16 03:41:00,
2013-02-15 22:46:00,57.0,54.3,30.00,WNW,291,0.0,0.0,91,0.00,,,0.01,VWS V14.01,2013-02-16 03:46:00,
2013-02-15 22:51:00,56.9,54.2,30.00,WNW,291,0.0,0.0,91,0.00,,,0.01,VWS V14.01,2013-02-16 03:51:00,
2013-02-15 22:56:00,56.9,54.2,30.00,WNW,291,0.0,0.0,90,0.00,,,0.01,VWS V14.01,2013-02-16 03:56:00,
2013-02-15 23:01:00,57.0,54.2,30.00,WNW,291,0.0,0.0,90,0.00,,,0.01,VWS V14.01,2013-02-16 04:01:00,
2013-02-15 23:06:00,56.8,54.1,30.00,WNW,291,0.0,0.0,91,0.00,,,0.01,VWS V14.01,2013-02-16 04:06:00,
2013-02-15 23:11:00,56.7,54.0,30.00,WNW,291,0.0,0.0,91,0.00,,,0.01,VWS V14.01,2013-02-16 04:11:00,
2013-02-15 23:16:00,56.7,54.0,30.00,WNW,291,0.0,0.0,90,0.00,,,0.01,VWS V14.01,2013-02-16 04:16:00,
2013-02-15 23:21:00,56.6,53.9,30.00,WNW,291,0.0,0.0,90,0.00,,,0.01,VWS V14.01,2013-02-16 04:21:00,
2013-02-15 23:26:00,56.5,53.8,30.00,WNW,291,0.0,0.0,91,0.00,,,0.01,VWS V14.01,2013-02-16 04:26:00,
2013-02-15 23:31:00,56.4,53.7,30.00,WNW,291,0.0,0.0,91,0.00,,,0.01,VWS V14.01,2013-02-16 04:31:00,
2013-02-15 23:36:00,56.3,53.6,30.00,WNW,291,0.0,0.0,91,0.00,,,0.01,VWS V14.01,2013-02-16 04:36:00,
2013-02-15 23:41:00,56.3,53.6,30.00,WNW,291,0.0,0.0,91,0.00,,,0.01,VWS V14.01,2013-02-16 04:41:00,
2013-02-15 23:46:00,56.1,53.5,30.00,WNW,291,0.0,0.0,91,0.00,,,0.01,VWS V14.01,2013-02-16 04:46:00,
2013-02-15 23:51:00,56.1,53.5,30.00,WNW,291,0.0,0.0,91,0.00,,,0.01,VWS V14.01,2013-02-16 04:51:00,
2013-02-15 23:56:00,56.0,53.4,30.00,WNW,291,0.0,0.0,91,0.00,,,0.01,VWS V14.01,2013-02-16 04:56:00,